DAL4187 KPWM-KBNA

Flight info

Callsign DAL4187
Flight time N/A
Altitude 36000
Route HSKEL3 CAM ALB J49 PSB Q71 GEFFS HVQ Q68 YOCKY CUTRR PASLY5
Aircraft B738/M-SDE2E3FGHIRWXY/LB1

Departure

Time N/A
Airport Portland International Jetport (KPWM)

Arrival

Time 2026-05-05 06:14
Airport Nashville International Airport (KBNA)
Time Latitude Longitude Altitude Speed Heading
2026-05-05 05:32 37.20152 -84.64831 35932 ft 412 kts 226°
2026-05-05 05:32 37.17974 -84.67180 35928 ft 412 kts 226°
2026-05-05 05:33 37.13631 -84.71864 35847 ft 413 kts 226°
2026-05-05 05:33 37.11436 -84.74229 35315 ft 415 kts 226°
2026-05-05 05:33 37.09253 -84.76585 34253 ft 429 kts 226°
2026-05-05 05:34 37.06959 -84.79061 33296 ft 434 kts 226°
2026-05-05 05:34 37.04711 -84.81554 32856 ft 426 kts 229°
2026-05-05 05:34 37.02661 -84.84181 32119 ft 423 kts 234°
2026-05-05 05:34 37.00868 -84.87046 31379 ft 419 kts 239°
2026-05-05 05:35 36.99269 -84.90080 30603 ft 418 kts 242°
2026-05-05 05:35 36.97779 -84.93170 29836 ft 418 kts 243°
2026-05-05 05:35 36.96298 -84.96337 28993 ft 419 kts 243°
2026-05-05 05:35 36.94823 -84.99493 28103 ft 422 kts 243°
2026-05-05 05:36 36.93339 -85.02638 27164 ft 425 kts 243°
2026-05-05 05:36 36.91836 -85.05795 26121 ft 429 kts 243°
2026-05-05 05:36 36.90291 -85.09013 25013 ft 435 kts 242°
2026-05-05 05:36 36.88748 -85.12206 24337 ft 430 kts 242°
2026-05-05 05:37 36.87203 -85.15378 23653 ft 425 kts 242°
2026-05-05 05:37 36.85664 -85.18528 22965 ft 422 kts 241°
2026-05-05 05:37 36.84146 -85.21630 22347 ft 417 kts 241°
2026-05-05 05:37 36.82638 -85.24708 21657 ft 413 kts 241°
2026-05-05 05:38 36.81159 -85.27724 20964 ft 410 kts 241°
2026-05-05 05:38 36.79683 -85.30738 20340 ft 406 kts 241°
2026-05-05 05:38 36.78235 -85.33684 20159 ft 390 kts 241°
2026-05-05 05:38 36.76836 -85.36522 19919 ft 378 kts 241°
2026-05-05 05:39 36.75482 -85.39269 19789 ft 363 kts 241°
2026-05-05 05:39 36.74200 -85.41885 19557 ft 352 kts 241°
2026-05-05 05:39 36.72948 -85.44516 19077 ft 348 kts 242°
2026-05-05 05:39 36.71746 -85.47092 18489 ft 349 kts 242°
2026-05-05 05:40 36.70524 -85.49730 17975 ft 346 kts 242°
2026-05-05 05:40 36.69338 -85.52282 17454 ft 344 kts 242°
2026-05-05 05:40 36.68133 -85.54858 16924 ft 342 kts 242°
2026-05-05 05:40 36.66937 -85.57404 16484 ft 338 kts 242°
2026-05-05 05:41 36.65747 -85.59929 15908 ft 338 kts 242°
2026-05-05 05:41 36.64576 -85.62409 15395 ft 336 kts 242°
2026-05-05 05:41 36.63393 -85.64913 15015 ft 331 kts 242°
2026-05-05 05:41 36.62237 -85.67356 14963 ft 327 kts 241°
2026-05-05 05:42 36.61070 -85.69826 14966 ft 332 kts 241°
2026-05-05 05:42 36.59892 -85.72318 14971 ft 336 kts 241°
2026-05-05 05:42 36.58713 -85.74802 14960 ft 333 kts 241°
2026-05-05 05:42 36.57556 -85.77236 14963 ft 317 kts 241°
2026-05-05 05:43 36.56458 -85.79546 14956 ft 301 kts 241°
2026-05-05 05:43 36.55415 -85.81737 14804 ft 291 kts 241°
2026-05-05 05:43 36.54387 -85.83903 14376 ft 291 kts 241°
2026-05-05 05:43 36.53354 -85.86086 13918 ft 293 kts 241°
2026-05-05 05:44 36.52331 -85.88242 13559 ft 290 kts 241°
2026-05-05 05:44 36.51320 -85.90367 13270 ft 283 kts 241°
2026-05-05 05:44 36.50337 -85.92429 12753 ft 276 kts 240°
2026-05-05 05:44 36.49361 -85.94482 11922 ft 279 kts 240°
2026-05-05 05:45 36.48376 -85.96551 11240 ft 276 kts 240°
2026-05-05 05:45 36.47421 -85.98551 10640 ft 269 kts 240°
2026-05-05 05:45 36.46473 -86.00537 10110 ft 262 kts 240°
2026-05-05 05:45 36.45564 -86.02438 9973 ft 254 kts 240°
2026-05-05 05:46 36.44640 -86.04369 9974 ft 263 kts 240°
2026-05-05 05:46 36.43695 -86.06346 9971 ft 268 kts 240°
2026-05-05 05:46 36.42748 -86.08324 9970 ft 266 kts 240°
2026-05-05 05:46 36.41795 -86.10314 9968 ft 267 kts 240°
2026-05-05 05:47 36.40840 -86.12306 9968 ft 265 kts 240°
2026-05-05 05:47 36.39901 -86.14264 9970 ft 266 kts 240°
2026-05-05 05:47 36.38943 -86.16260 9970 ft 268 kts 239°
2026-05-05 05:47 36.38003 -86.18215 9967 ft 267 kts 239°
2026-05-05 05:48 36.37049 -86.20203 9973 ft 267 kts 240°
2026-05-05 05:48 36.36099 -86.22179 9965 ft 268 kts 240°
2026-05-05 05:48 36.35138 -86.24178 9980 ft 269 kts 240°
2026-05-05 05:48 36.34183 -86.26163 9969 ft 267 kts 240°
2026-05-05 05:49 36.33220 -86.28162 9965 ft 268 kts 240°
2026-05-05 05:49 36.32265 -86.30147 9972 ft 269 kts 240°
2026-05-05 05:49 36.31304 -86.32139 9984 ft 268 kts 240°
2026-05-05 05:49 36.30352 -86.34109 9977 ft 266 kts 240°
2026-05-05 05:50 36.29393 -86.36096 9978 ft 265 kts 240°
2026-05-05 05:50 36.28475 -86.37997 9977 ft 255 kts 240°
2026-05-05 05:50 36.27567 -86.39875 9980 ft 250 kts 240°
2026-05-05 05:50 36.26678 -86.41715 9983 ft 250 kts 240°
2026-05-05 05:51 36.25801 -86.43529 9885 ft 242 kts 240°
2026-05-05 05:51 36.24934 -86.45320 9282 ft 243 kts 240°
2026-05-05 05:51 36.24079 -86.47085 8993 ft 233 kts 239°
2026-05-05 05:51 36.23246 -86.48804 8979 ft 235 kts 240°
2026-05-05 05:52 36.22365 -86.50558 8976 ft 244 kts 236°
2026-05-05 05:52 36.21185 -86.52024 9022 ft 234 kts 213°
2026-05-05 05:52 36.19719 -86.52745 8797 ft 224 kts 199°
2026-05-05 05:52 36.18219 -86.53234 8258 ft 224 kts 199°
2026-05-05 05:53 36.16746 -86.53754 7982 ft 213 kts 200°
2026-05-05 05:53 36.15355 -86.54298 7974 ft 210 kts 202°
2026-05-05 05:53 36.13921 -86.54878 7980 ft 219 kts 201°
2026-05-05 05:53 36.12469 -86.55464 7975 ft 219 kts 201°
2026-05-05 05:54 36.11008 -86.56051 7975 ft 219 kts 201°
2026-05-05 05:54 36.09562 -86.56623 7976 ft 217 kts 201°
2026-05-05 05:54 36.08149 -86.57145 7816 ft 205 kts 200°
2026-05-05 05:54 36.06795 -86.57633 7398 ft 203 kts 200°
2026-05-05 05:55 36.05437 -86.58130 6960 ft 200 kts 200°
2026-05-05 05:55 36.04110 -86.58620 6513 ft 197 kts 200°
2026-05-05 05:55 36.02818 -86.59098 6053 ft 195 kts 200°
2026-05-05 05:55 36.01527 -86.59576 5547 ft 195 kts 200°
2026-05-05 05:56 36.00232 -86.60057 5093 ft 192 kts 200°
2026-05-05 05:56 35.98953 -86.60531 4604 ft 191 kts 200°
2026-05-05 05:56 35.97686 -86.60999 4162 ft 189 kts 200°
2026-05-05 05:56 35.96445 -86.61459 3691 ft 188 kts 201°
2026-05-05 05:57 35.95216 -86.61912 3458 ft 175 kts 201°
2026-05-05 05:57 35.94157 -86.62403 3442 ft 153 kts 218°
2026-05-05 05:57 35.93617 -86.63467 3477 ft 152 kts 261°
2026-05-05 05:57 35.93921 -86.64803 3516 ft 177 kts 296°
2026-05-05 05:58 35.94675 -86.66005 3529 ft 170 kts 299°
2026-05-05 05:58 35.95412 -86.67145 3153 ft 172 kts 298°
2026-05-05 05:58 35.96132 -86.68277 2952 ft 166 kts 298°
2026-05-05 05:58 35.96854 -86.69406 2990 ft 168 kts 298°
2026-05-05 05:59 35.97593 -86.70579 3001 ft 175 kts 298°
2026-05-05 05:59 35.98328 -86.71738 2898 ft 168 kts 298°
2026-05-05 05:59 35.99040 -86.72850 2597 ft 163 kts 298°
2026-05-05 05:59 35.99940 -86.73706 2419 ft 172 kts 334°
2026-05-05 06:00 36.01194 -86.73652 2502 ft 196 kts 17°
2026-05-05 06:00 36.02324 -86.72604 2368 ft 212 kts 50°
2026-05-05 06:00 36.03312 -86.71264 2010 ft 206 kts 37°
2026-05-05 06:00 36.04546 -86.70604 1747 ft 180 kts 357°
2026-05-05 06:01 36.05712 -86.70738 1509 ft 168 kts 356°
2026-05-05 06:01 36.06841 -86.70398 1351 ft 169 kts 16°
2026-05-05 06:01 36.07916 -86.69878 1206 ft 163 kts 18°
2026-05-05 06:01 36.08958 -86.69354 1159 ft 159 kts 14°
2026-05-05 06:02 36.10023 -86.68902 1119 ft 163 kts 15°
2026-05-05 06:02 36.11102 -86.68538 1314 ft 153 kts 15°
2026-05-05 06:02 36.12012 -86.67934 1765 ft 154 kts 38°
2026-05-05 06:02 36.12741 -86.66946 2012 ft 170 kts 58°
2026-05-05 06:03 36.13447 -86.65624 2122 ft 192 kts 59°
2026-05-05 06:03 36.14198 -86.64175 2109 ft 206 kts 59°
2026-05-05 06:03 36.15020 -86.62583 2114 ft 228 kts 58°
2026-05-05 06:03 36.15905 -86.60907 2105 ft 234 kts 58°
2026-05-05 06:04 36.16782 -86.59242 2335 ft 227 kts 59°
2026-05-05 06:04 36.17665 -86.57580 2656 ft 237 kts 57°
2026-05-05 06:04 36.18572 -86.55837 3016 ft 234 kts 59°
2026-05-05 06:04 36.19229 -86.54129 3850 ft 216 kts 86°
2026-05-05 06:05 36.19133 -86.52354 4211 ft 223 kts 105°
2026-05-05 06:05 36.18767 -86.50326 3786 ft 228 kts 126°
2026-05-05 06:05 36.17947 -86.48927 4300 ft 206 kts 146°
2026-05-05 06:05 36.16787 -86.47778 4126 ft 215 kts 153°
2026-05-05 06:06 36.15468 -86.47220 4029 ft 197 kts 187°
2026-05-05 06:06 36.14187 -86.47599 3904 ft 190 kts 203°
2026-05-05 06:06 36.12937 -86.48165 3604 ft 183 kts 205°
2026-05-05 06:06 36.11882 -86.48709 3629 ft 174 kts 208°
2026-05-05 06:07 36.10701 -86.49477 2578 ft 196 kts 212°
2026-05-05 06:07 36.09636 -86.50325 2658 ft 176 kts 218°
2026-05-05 06:07 36.08728 -86.51289 2972 ft 169 kts 222°
2026-05-05 06:07 36.07729 -86.52142 3431 ft 176 kts 212°
2026-05-05 06:08 36.06593 -86.52883 3711 ft 196 kts 210°
2026-05-05 06:08 36.05360 -86.53640 3765 ft 191 kts 208°
2026-05-05 06:08 36.04218 -86.54391 3882 ft 186 kts 209°
2026-05-05 06:08 36.03042 -86.55073 3950 ft 189 kts 211°
2026-05-05 06:09 36.01831 -86.55881 3475 ft 202 kts 204°
2026-05-05 06:09 36.00641 -86.56493 3763 ft 173 kts 208°
2026-05-05 06:09 35.99713 -86.57408 3850 ft 182 kts 230°
2026-05-05 06:09 35.99050 -86.58750 3924 ft 181 kts 244°
2026-05-05 06:10 35.98796 -86.60291 4050 ft 195 kts 264°
2026-05-05 06:10 35.98764 -86.61939 4217 ft 187 kts 272°
2026-05-05 06:10 35.98953 -86.63605 4087 ft 196 kts 278°
2026-05-05 06:10 35.99607 -86.65057 3424 ft 218 kts 308°
2026-05-05 06:11 36.00859 -86.66044 3035 ft 200 kts 321°
2026-05-05 06:11 36.02076 -86.66769 2622 ft 199 kts 330°
2026-05-05 06:11 36.03392 -86.67331 2051 ft 196 kts 332°
2026-05-05 06:11 36.04588 -86.67848 2035 ft 172 kts 335°
2026-05-05 06:12 36.05856 -86.68150 1604 ft 190 kts 341°
2026-05-05 06:12 36.07112 -86.68325 1283 ft 182 kts 357°
2026-05-05 06:12 36.08289 -86.68014 1062 ft 162 kts 16°
2026-05-05 06:12 36.09333 -86.67575 935 ft 156 kts 15°
2026-05-05 06:13 36.10392 -86.67125 820 ft 163 kts 21°
2026-05-05 06:13 36.11448 -86.66701 659 ft 154 kts 18°
2026-05-05 06:13 36.12367 -86.66305 608 ft 113 kts 17°
2026-05-05 06:13 36.12918 -86.66093 608 ft 51 kts 17°
2026-05-05 06:14 36.13116 -86.66019 608 ft 18 kts 17°
2026-05-05 06:14 36.13182 -86.65994 608 ft 6 kts 17°
2026-05-05 06:14 36.13222 -86.65981 608 ft 5 kts 11°
2026-05-05 06:14 36.13253 -86.65988 608 ft 4 kts 329°
2026-05-05 06:15 36.13266 -86.66009 608 ft 3 kts 276°
2026-05-05 06:15 36.13269 -86.66041 608 ft 5 kts 277°
2026-05-05 06:15 36.13268 -86.66084 608 ft 4 kts 241°
2026-05-05 06:15 36.13233 -86.66116 608 ft 9 kts 200°
2026-05-05 06:16 36.13172 -86.66142 608 ft 8 kts 199°
2026-05-05 06:16 36.13117 -86.66166 608 ft 7 kts 199°
2026-05-05 06:16 36.13068 -86.66188 608 ft 7 kts 199°